Time,TemperatureF,DewpointF,PressureIn,WindDirection,WindDirectionDegrees,WindSpeedMPH,WindSpeedGustMPH,Humidity,HourlyPrecipIn,Conditions,Clouds,dailyrainin,SoftwareType,DateUTC
2013-10-08 00:02:00,48.3,34.7,29.92,WNW,287,0.0,0.0,59,0.00,,---,0.00,VWS V14.00,2013-10-08 07:02:00,
2013-10-08 00:07:00,48.1,34.5,29.92,WNW,287,0.0,0.0,59,0.00,,---,0.00,VWS V14.00,2013-10-08 07:07:00,
2013-10-08 00:12:00,48.0,34.8,29.92,WNW,287,0.0,0.0,60,0.00,,---,0.00,VWS V14.00,2013-10-08 07:12:00,
2013-10-08 00:17:00,47.8,34.6,29.92,WNW,287,0.0,0.0,60,0.00,,---,0.00,VWS V14.00,2013-10-08 07:17:00,
2013-10-08 00:22:00,47.6,34.4,29.91,WNW,287,0.0,0.0,60,0.00,,---,0.00,VWS V14.00,2013-10-08 07:22:00,
2013-10-08 00:27:00,47.5,34.7,29.91,WNW,287,0.0,0.0,61,0.00,,---,0.00,VWS V14.00,2013-10-08 07:27:00,
2013-10-08 00:32:00,47.3,34.5,29.91,WNW,287,0.0,0.0,61,0.00,,---,0.00,VWS V14.00,2013-10-08 07:32:00,
2013-10-08 00:37:00,47.2,34.5,29.91,WNW,287,0.0,0.0,61,0.00,,---,0.00,VWS V14.00,2013-10-08 07:37:00,
2013-10-08 00:42:00,47.0,34.3,29.91,WNW,287,0.0,0.0,61,0.00,,---,0.00,VWS V14.00,2013-10-08 07:42:00,
2013-10-08 00:47:00,46.9,34.6,29.91,WNW,287,0.0,0.0,62,0.00,,---,0.00,VWS V14.00,2013-10-08 07:47:00,
2013-10-08 00:52:00,46.7,34.4,29.91,WNW,287,0.0,0.0,62,0.00,,---,0.00,VWS V14.00,2013-10-08 07:52:00,
2013-10-08 00:57:00,46.6,34.3,29.91,WNW,287,0.0,0.0,62,0.00,,---,0.00,VWS V14.00,2013-10-08 07:57:00,
2013-10-08 01:02:00,46.5,34.2,29.91,WNW,287,0.0,0.0,62,0.00,,---,0.00,VWS V14.00,2013-10-08 08:02:00,
2013-10-08 01:07:00,46.3,34.4,29.91,WNW,287,0.0,0.0,63,0.00,,---,0.00,VWS V14.00,2013-10-08 08:07:00,
2013-10-08 01:12:00,46.2,34.3,29.91,WNW,287,0.0,0.0,63,0.00,,---,0.00,VWS V14.00,2013-10-08 08:12:00,
2013-10-08 01:17:00,46.1,34.2,29.91,WNW,287,0.0,0.0,63,0.00,,---,0.00,VWS V14.00,2013-10-08 08:17:00,
2013-10-08 01:22:00,45.9,34.4,29.91,WNW,287,0.0,0.0,64,0.00,,---,0.00,VWS V14.00,2013-10-08 08:22:00,
2013-10-08 01:27:00,45.8,34.3,29.91,WNW,287,0.0,0.0,64,0.00,,---,0.00,VWS V14.00,2013-10-08 08:27:00,
2013-10-08 01:33:00,45.7,34.2,29.91,WNW,287,0.0,0.0,64,0.00,,---,0.00,VWS V14.00,2013-10-08 08:33:00,
2013-10-08 01:38:00,45.5,34.0,29.91,WNW,287,0.0,0.0,64,0.00,,---,0.00,VWS V14.00,2013-10-08 08:38:00,
2013-10-08 01:43:00,45.4,34.0,29.92,WNW,287,0.0,0.0,64,0.00,,---,0.00,VWS V14.00,2013-10-08 08:43:00,
2013-10-08 01:48:00,45.2,33.8,29.92,WNW,287,0.0,0.0,64,0.00,,---,0.00,VWS V14.00,2013-10-08 08:48:00,
2013-10-08 01:53:00,45.1,34.0,29.92,WNW,287,0.0,0.0,65,0.00,,---,0.00,VWS V14.00,2013-10-08 08:53:00,
2013-10-08 01:58:00,45.0,34.0,29.92,WNW,287,0.0,0.0,65,0.00,,---,0.00,VWS V14.00,2013-10-08 08:58:00,
2013-10-08 02:03:00,45.0,34.0,29.92,WNW,287,0.0,0.0,65,0.00,,---,0.00,VWS V14.00,2013-10-08 09:03:00,
2013-10-08 02:08:00,44.9,34.2,29.92,WNW,287,0.0,0.0,66,0.00,,---,0.00,VWS V14.00,2013-10-08 09:08:00,
2013-10-08 02:13:00,44.7,34.0,29.92,WNW,287,0.0,0.0,66,0.00,,---,0.00,VWS V14.00,2013-10-08 09:13:00,
2013-10-08 02:18:00,44.6,34.0,29.92,WNW,287,0.0,0.0,66,0.00,,---,0.00,VWS V14.00,2013-10-08 09:18:00,
2013-10-08 02:23:00,44.5,34.2,29.92,WNW,287,0.0,0.0,67,0.00,,---,0.00,VWS V14.00,2013-10-08 09:23:00,
2013-10-08 02:28:00,44.4,33.8,29.92,WNW,287,0.0,0.0,66,0.00,,---,0.00,VWS V14.00,2013-10-08 09:28:00,
2013-10-08 02:33:00,44.3,34.0,29.92,WNW,287,0.0,0.0,67,0.00,,---,0.00,VWS V14.00,2013-10-08 09:33:00,
2013-10-08 02:38:00,44.2,34.0,29.92,WNW,287,0.0,0.0,67,0.00,,---,0.00,VWS V14.00,2013-10-08 09:38:00,
2013-10-08 02:43:00,44.1,33.9,29.91,WNW,287,0.0,0.0,67,0.00,,---,0.00,VWS V14.00,2013-10-08 09:43:00,
2013-10-08 02:48:00,44.0,33.8,29.91,WNW,287,0.0,0.0,67,0.00,,---,0.00,VWS V14.00,2013-10-08 09:48:00,
2013-10-08 02:53:00,43.9,34.0,29.91,WNW,287,0.0,0.0,68,0.00,,---,0.00,VWS V14.00,2013-10-08 09:53:00,
2013-10-08 02:58:00,43.8,33.9,29.91,WNW,287,0.0,0.0,68,0.00,,---,0.00,VWS V14.00,2013-10-08 09:58:00,
2013-10-08 03:03:00,43.7,33.8,29.91,WNW,287,0.0,0.0,68,0.00,,---,0.00,VWS V14.00,2013-10-08 10:03:00,
2013-10-08 03:08:00,43.6,33.8,29.91,WNW,287,0.0,0.0,68,0.00,,---,0.00,VWS V14.00,2013-10-08 10:08:00,
2013-10-08 03:13:00,43.5,33.7,29.91,WNW,287,0.0,0.0,68,0.00,,---,0.00,VWS V14.00,2013-10-08 10:13:00,
2013-10-08 03:18:00,43.4,33.9,29.91,WNW,287,0.0,0.0,69,0.00,,---,0.00,VWS V14.00,2013-10-08 10:18:00,
2013-10-08 03:23:00,43.4,33.9,29.91,WNW,287,0.0,0.0,69,0.00,,---,0.00,VWS V14.00,2013-10-08 10:23:00,
2013-10-08 03:28:00,43.3,33.8,29.91,WNW,287,0.0,0.0,69,0.00,,---,0.00,VWS V14.00,2013-10-08 10:28:00,
2013-10-08 03:33:00,43.2,33.7,29.91,WNW,287,0.0,0.0,69,0.00,,---,0.00,VWS V14.00,2013-10-08 10:33:00,
2013-10-08 03:38:00,43.1,34.0,29.91,WNW,287,0.0,0.0,70,0.00,,---,0.00,VWS V14.00,2013-10-08 10:38:00,
2013-10-08 03:43:00,43.0,33.9,29.91,WNW,287,0.0,0.0,70,0.00,,---,0.00,VWS V14.00,2013-10-08 10:43:00,
2013-10-08 03:48:00,42.9,33.8,29.90,WNW,287,0.0,0.0,70,0.00,,---,0.00,VWS V14.00,2013-10-08 10:48:00,
2013-10-08 03:53:00,42.8,33.7,29.90,WNW,287,0.0,0.0,70,0.00,,---,0.00,VWS V14.00,2013-10-08 10:53:00,
2013-10-08 03:58:00,42.8,34.1,29.90,WNW,287,0.0,0.0,71,0.00,,---,0.00,VWS V14.00,2013-10-08 10:58:00,
2013-10-08 04:03:00,42.6,33.9,29.90,WNW,287,0.0,0.0,71,0.00,,---,0.00,VWS V14.00,2013-10-08 11:03:00,
2013-10-08 04:08:00,42.5,33.8,29.90,WNW,287,0.0,0.0,71,0.00,,---,0.00,VWS V14.00,2013-10-08 11:08:00,
2013-10-08 04:13:00,42.5,33.8,29.90,WNW,287,0.0,0.0,71,0.00,,---,0.00,VWS V14.00,2013-10-08 11:13:00,
2013-10-08 04:18:00,42.4,33.7,29.90,WNW,287,0.0,0.0,71,0.00,,---,0.00,VWS V14.00,2013-10-08 11:18:00,
2013-10-08 04:23:00,42.3,33.6,29.90,WNW,287,0.0,0.0,71,0.00,,---,0.00,VWS V14.00,2013-10-08 11:23:00,
2013-10-08 04:28:00,42.2,33.8,29.90,WNW,287,0.0,0.0,72,0.00,,---,0.00,VWS V14.00,2013-10-08 11:28:00,
2013-10-08 04:33:00,42.1,33.7,29.89,WNW,287,0.0,0.0,72,0.00,,---,0.00,VWS V14.00,2013-10-08 11:33:00,
2013-10-08 04:38:00,42.0,34.0,29.89,WNW,287,0.0,0.0,73,0.00,,---,0.00,VWS V14.00,2013-10-08 11:38:00,
2013-10-08 04:43:00,41.9,33.9,29.89,WNW,287,0.0,0.0,73,0.00,,---,0.00,VWS V14.00,2013-10-08 11:43:00,
2013-10-08 04:48:00,41.9,33.9,29.89,WNW,287,0.0,0.0,73,0.00,,---,0.00,VWS V14.00,2013-10-08 11:48:00,
2013-10-08 04:53:00,41.8,33.8,29.90,WNW,287,0.0,0.0,73,0.00,,---,0.00,VWS V14.00,2013-10-08 11:53:00,
2013-10-08 04:58:00,41.7,33.7,29.90,WNW,287,0.0,0.0,73,0.00,,---,0.00,VWS V14.00,2013-10-08 11:58:00,
2013-10-08 05:03:00,41.6,33.6,29.90,WNW,287,0.0,0.0,73,0.00,,---,0.00,VWS V14.00,2013-10-08 12:03:00,
2013-10-08 05:08:00,41.6,33.6,29.90,WNW,287,0.0,0.0,73,0.00,,---,0.00,VWS V14.00,2013-10-08 12:08:00,
2013-10-08 05:13:00,41.5,33.5,29.91,WNW,287,0.0,0.0,73,0.00,,---,0.00,VWS V14.00,2013-10-08 12:13:00,
2013-10-08 05:18:00,41.4,33.4,29.91,WNW,287,0.0,0.0,73,0.00,,---,0.00,VWS V14.00,2013-10-08 12:18:00,
2013-10-08 05:23:00,41.3,33.7,29.91,WNW,287,0.0,0.0,74,0.00,,---,0.00,VWS V14.00,2013-10-08 12:23:00,
2013-10-08 05:28:00,41.3,33.7,29.91,WNW,287,0.0,0.0,74,0.00,,---,0.00,VWS V14.00,2013-10-08 12:28:00,
2013-10-08 05:33:00,41.3,34.0,29.90,WNW,287,0.0,1.0,75,0.00,,---,0.00,VWS V14.00,2013-10-08 12:33:00,
2013-10-08 05:38:00,41.4,33.8,29.90,WNW,287,0.0,0.0,74,0.00,,---,0.00,VWS V14.00,2013-10-08 12:38:00,
2013-10-08 05:43:00,41.3,33.7,29.90,WNW,287,0.0,0.0,74,0.00,,---,0.00,VWS V14.00,2013-10-08 12:43:00,
2013-10-08 05:48:00,41.1,33.5,29.90,WNW,287,0.0,0.0,74,0.00,,---,0.00,VWS V14.00,2013-10-08 12:48:00,
2013-10-08 05:53:00,41.0,33.7,29.90,WNW,287,0.0,0.0,75,0.00,,---,0.00,VWS V14.00,2013-10-08 12:53:00,
2013-10-08 05:58:00,40.9,33.6,29.90,WNW,287,0.0,0.0,75,0.00,,---,0.00,VWS V14.00,2013-10-08 12:58:00,
2013-10-08 06:03:00,40.8,33.5,29.90,WNW,287,0.0,0.0,75,0.00,,---,0.00,VWS V14.00,2013-10-08 13:03:00,
2013-10-08 06:08:00,40.7,33.4,29.90,WNW,287,0.0,0.0,75,0.00,,---,0.00,VWS V14.00,2013-10-08 13:08:00,
2013-10-08 06:13:00,40.7,33.4,29.90,WNW,287,0.0,0.0,75,0.00,,---,0.00,VWS V14.00,2013-10-08 13:13:00,
2013-10-08 06:18:00,40.6,33.3,29.89,WNW,287,0.0,0.0,75,0.00,,---,0.00,VWS V14.00,2013-10-08 13:18:00,
2013-10-08 06:23:00,40.5,33.5,29.90,WNW,287,0.0,0.0,76,0.00,,---,0.00,VWS V14.00,2013-10-08 13:23:00,
2013-10-08 06:29:00,40.4,33.5,29.90,WNW,287,0.0,1.0,76,0.00,,---,0.00,VWS V14.00,2013-10-08 13:29:00,
2013-10-08 06:34:00,40.3,33.7,29.90,WNW,287,0.0,0.0,77,0.00,,---,0.00,VWS V14.00,2013-10-08 13:34:00,
2013-10-08 06:39:00,40.2,33.2,29.90,WNW,287,0.0,0.0,76,0.00,,---,0.00,VWS V14.00,2013-10-08 13:39:00,
2013-10-08 06:44:00,40.2,33.2,29.90,WNW,287,0.0,0.0,76,0.00,,---,0.00,VWS V14.00,2013-10-08 13:44:00,
2013-10-08 06:49:00,40.2,33.6,29.90,WNW,287,0.0,0.0,77,0.00,,---,0.00,VWS V14.00,2013-10-08 13:49:00,
2013-10-08 06:54:00,40.1,33.5,29.90,WNW,287,0.0,0.0,77,0.00,,---,0.00,VWS V14.00,2013-10-08 13:54:00,
2013-10-08 06:59:00,40.1,33.5,29.90,WNW,287,0.0,0.0,77,0.00,,---,0.00,VWS V14.00,2013-10-08 13:59:00,
2013-10-08 07:04:00,40.0,33.4,29.90,WNW,287,0.0,0.0,77,0.00,,---,0.00,VWS V14.00,2013-10-08 14:04:00,
2013-10-08 07:09:00,39.9,33.3,29.90,WNW,287,0.0,0.0,77,0.00,,---,0.00,VWS V14.00,2013-10-08 14:09:00,
2013-10-08 07:14:00,39.8,33.2,29.90,WNW,287,0.0,0.0,77,0.00,,---,0.00,VWS V14.00,2013-10-08 14:14:00,
2013-10-08 07:19:00,39.8,33.5,29.90,WNW,287,0.0,0.0,78,0.00,,---,0.00,VWS V14.00,2013-10-08 14:19:00,
2013-10-08 07:24:00,39.7,33.4,29.90,WNW,287,0.0,0.0,78,0.00,,---,0.00,VWS V14.00,2013-10-08 14:24:00,
2013-10-08 07:29:00,39.8,33.5,29.90,WNW,287,0.0,0.0,78,0.00,,---,0.00,VWS V14.00,2013-10-08 14:29:00,
2013-10-08 07:34:00,39.9,33.6,29.90,WNW,287,0.0,0.0,78,0.00,,---,0.00,VWS V14.00,2013-10-08 14:34:00,
2013-10-08 07:39:00,39.8,33.8,29.90,WNW,287,0.0,0.0,79,0.00,,---,0.00,VWS V14.00,2013-10-08 14:39:00,
2013-10-08 07:44:00,39.8,33.5,29.90,WNW,287,0.0,0.0,78,0.00,,---,0.00,VWS V14.00,2013-10-08 14:44:00,
2013-10-08 07:49:00,39.8,33.8,29.91,WNW,287,0.0,0.0,79,0.00,,---,0.00,VWS V14.00,2013-10-08 14:49:00,
2013-10-08 07:54:00,39.7,33.7,29.91,WNW,287,0.0,0.0,79,0.00,,---,0.00,VWS V14.00,2013-10-08 14:54:00,
2013-10-08 07:59:00,39.7,33.7,29.91,WNW,287,0.0,0.0,79,0.00,,---,0.00,VWS V14.00,2013-10-08 14:59:00,
2013-10-08 08:04:00,39.8,33.8,29.91,WNW,287,0.0,0.0,79,0.00,,---,0.00,VWS V14.00,2013-10-08 15:04:00,
2013-10-08 08:09:00,39.9,33.9,29.91,WNW,287,0.0,0.0,79,0.00,,---,0.00,VWS V14.00,2013-10-08 15:09:00,
2013-10-08 08:14:00,40.0,34.3,29.91,WNW,287,0.0,0.0,80,0.00,,---,0.00,VWS V14.00,2013-10-08 15:14:00,
2013-10-08 08:19:00,40.2,34.5,29.91,WNW,287,0.0,0.0,80,0.00,,---,0.00,VWS V14.00,2013-10-08 15:19:00,
2013-10-08 08:24:00,40.3,34.3,29.90,WNW,287,0.0,0.0,79,0.00,,---,0.00,VWS V14.00,2013-10-08 15:24:00,
2013-10-08 08:29:00,40.5,34.8,29.90,WNW,287,0.0,0.0,80,0.00,,---,0.00,VWS V14.00,2013-10-08 15:29:00,
2013-10-08 08:34:00,40.8,35.1,29.90,WNW,287,0.0,0.0,80,0.00,,---,0.00,VWS V14.00,2013-10-08 15:34:00,
2013-10-08 08:39:00,41.1,35.4,29.90,WNW,287,0.0,0.0,80,0.00,,---,0.00,VWS V14.00,2013-10-08 15:39:00,
2013-10-08 08:44:00,41.4,36.0,29.90,WNW,287,0.0,0.0,81,0.00,,---,0.00,VWS V14.00,2013-10-08 15:44:00,
2013-10-08 08:49:00,41.8,36.1,29.90,WNW,287,0.0,0.0,80,0.00,,---,0.00,VWS V14.00,2013-10-08 15:49:00,
2013-10-08 08:54:00,42.0,36.3,29.90,WNW,287,0.0,0.0,80,0.00,,---,0.00,VWS V14.00,2013-10-08 15:54:00,
2013-10-08 08:59:00,42.3,36.3,29.89,WNW,287,0.0,0.0,79,0.00,,---,0.00,VWS V14.00,2013-10-08 15:59:00,
2013-10-08 09:04:00,42.6,36.2,29.89,WNW,287,0.0,0.0,78,0.00,,---,0.00,VWS V14.00,2013-10-08 16:04:00,
2013-10-08 09:09:00,43.1,36.7,29.89,WNW,287,0.0,0.0,78,0.00,,---,0.00,VWS V14.00,2013-10-08 16:09:00,
2013-10-08 09:14:00,43.4,36.7,29.89,WNW,287,0.0,0.0,77,0.00,,---,0.00,VWS V14.00,2013-10-08 16:14:00,
2013-10-08 09:19:00,43.8,36.7,29.89,WNW,287,0.0,0.0,76,0.00,,---,0.00,VWS V14.00,2013-10-08 16:19:00,
2013-10-08 09:24:00,44.1,37.0,29.89,WNW,287,0.0,0.0,76,0.00,,---,0.00,VWS V14.00,2013-10-08 16:24:00,
2013-10-08 09:29:00,44.6,37.5,29.89,WNW,287,0.0,0.0,76,0.00,,---,0.00,VWS V14.00,2013-10-08 16:29:00,
2013-10-08 09:34:00,45.1,37.7,29.89,WNW,287,0.0,0.0,75,0.00,,---,0.00,VWS V14.00,2013-10-08 16:34:00,
2013-10-08 09:39:00,45.8,38.7,29.89,WNW,287,0.0,0.0,76,0.00,,---,0.00,VWS V14.00,2013-10-08 16:39:00,
2013-10-08 09:44:00,46.2,38.4,29.89,WNW,287,0.0,0.0,74,0.00,,---,0.00,VWS V14.00,2013-10-08 16:44:00,
2013-10-08 09:49:00,46.6,38.8,29.89,WNW,287,0.0,0.0,74,0.00,,---,0.00,VWS V14.00,2013-10-08 16:49:00,
2013-10-08 09:54:00,47.2,39.3,29.89,WNW,287,0.0,0.0,74,0.00,,---,0.00,VWS V14.00,2013-10-08 16:54:00,
2013-10-08 10:00:00,48.1,39.9,29.89,WNW,287,0.0,0.0,73,0.00,,---,0.00,VWS V14.00,2013-10-08 17:00:00,
2013-10-08 10:05:00,48.8,40.2,29.89,WNW,287,0.0,0.0,72,0.00,,---,0.00,VWS V14.00,2013-10-08 17:05:00,
2013-10-08 10:10:00,49.4,41.1,29.89,WNW,287,0.0,0.0,73,0.00,,---,0.00,VWS V14.00,2013-10-08 17:10:00,
2013-10-08 10:15:00,50.4,41.4,29.89,WNW,287,0.0,1.0,71,0.00,,---,0.00,VWS V14.00,2013-10-08 17:15:00,
2013-10-08 10:20:00,51.9,41.3,29.89,WNW,287,0.0,1.0,67,0.00,,---,0.00,VWS V14.00,2013-10-08 17:20:00,
2013-10-08 10:25:00,53.4,41.5,29.89,WNW,287,0.0,0.0,64,0.00,,---,0.00,VWS V14.00,2013-10-08 17:25:00,
2013-10-08 10:30:00,54.5,43.0,29.89,WNW,287,1.0,1.0,65,0.00,,---,0.00,VWS V14.00,2013-10-08 17:30:00,
2013-10-08 10:35:00,55.6,42.4,29.89,NW,314,1.0,1.0,61,0.00,,---,0.00,VWS V14.00,2013-10-08 17:35:00,
2013-10-08 10:40:00,56.8,42.6,29.89,NW,315,0.0,1.0,59,0.00,,---,0.00,VWS V14.00,2013-10-08 17:40:00,
2013-10-08 10:45:00,57.9,42.8,29.89,NW,315,0.0,1.0,57,0.00,,---,0.00,VWS V14.00,2013-10-08 17:45:00,
2013-10-08 10:50:00,58.5,43.3,29.89,NW,315,0.0,1.0,57,0.00,,---,0.00,VWS V14.00,2013-10-08 17:50:00,
2013-10-08 10:55:00,59.0,43.3,29.89,NW,315,0.0,1.0,56,0.00,,---,0.00,VWS V14.00,2013-10-08 17:55:00,
2013-10-08 11:00:00,59.7,44.0,29.88,NW,315,0.0,1.0,56,0.00,,---,0.00,VWS V14.00,2013-10-08 18:00:00,
2013-10-08 11:05:00,60.2,44.5,29.89,NW,315,0.0,1.0,56,0.00,,---,0.00,VWS V14.00,2013-10-08 18:05:00,
2013-10-08 11:10:00,60.7,44.9,29.88,NW,315,0.0,1.0,56,0.00,,---,0.00,VWS V14.00,2013-10-08 18:10:00,
2013-10-08 11:15:00,61.4,46.0,29.88,NW,315,0.0,1.0,57,0.00,,---,0.00,VWS V14.00,2013-10-08 18:15:00,
2013-10-08 11:20:00,62.2,46.8,29.88,NW,314,0.0,1.0,57,0.00,,---,0.00,VWS V14.00,2013-10-08 18:20:00,
2013-10-08 11:25:00,62.7,47.3,29.88,NW,315,0.0,1.0,57,0.00,,---,0.00,VWS V14.00,2013-10-08 18:25:00,
2013-10-08 11:30:00,63.2,47.3,29.87,NW,315,0.0,1.0,56,0.00,,---,0.00,VWS V14.00,2013-10-08 18:30:00,
2013-10-08 11:35:00,63.6,47.6,29.87,NW,315,0.0,1.0,56,0.00,,---,0.00,VWS V14.00,2013-10-08 18:35:00,
2013-10-08 11:40:00,64.0,48.5,29.87,NW,314,0.0,1.0,57,0.00,,---,0.00,VWS V14.00,2013-10-08 18:40:00,
2013-10-08 11:45:00,64.3,48.8,29.87,NW,315,0.0,1.0,57,0.00,,---,0.00,VWS V14.00,2013-10-08 18:45:00,
2013-10-08 11:50:00,64.5,49.0,29.87,NW,315,0.0,1.0,57,0.00,,---,0.00,VWS V14.00,2013-10-08 18:50:00,
2013-10-08 11:55:00,64.8,49.2,29.87,NW,314,1.0,1.0,57,0.00,,---,0.00,VWS V14.00,2013-10-08 18:55:00,
2013-10-08 12:00:00,65.2,49.1,29.87,NW,315,0.0,2.0,56,0.00,,---,0.00,VWS V14.00,2013-10-08 19:00:00,
2013-10-08 12:05:00,65.5,49.4,29.87,NW,315,0.0,1.0,56,0.00,,---,0.00,VWS V14.00,2013-10-08 19:05:00,
2013-10-08 12:10:00,65.8,49.7,29.86,NW,315,0.0,1.0,56,0.00,,---,0.00,VWS V14.00,2013-10-08 19:10:00,
2013-10-08 12:15:00,66.2,50.1,29.86,NW,314,0.0,0.0,56,0.00,,---,0.00,VWS V14.00,2013-10-08 19:15:00,
2013-10-08 12:20:00,66.5,50.3,29.86,NW,315,0.0,0.0,56,0.00,,---,0.00,VWS V14.00,2013-10-08 19:20:00,
2013-10-08 12:25:00,66.7,50.0,29.86,NW,315,0.0,1.0,55,0.00,,---,0.00,VWS V14.00,2013-10-08 19:25:00,
2013-10-08 12:30:00,66.9,50.2,29.86,NW,315,0.0,1.0,55,0.00,,---,0.00,VWS V14.00,2013-10-08 19:30:00,
2013-10-08 12:35:00,67.1,49.9,29.86,NW,314,0.0,1.0,54,0.00,,---,0.00,VWS V14.00,2013-10-08 19:35:00,
2013-10-08 12:40:00,67.4,50.2,29.85,NW,315,0.0,1.0,54,0.00,,---,0.00,VWS V14.00,2013-10-08 19:40:00,
2013-10-08 12:45:00,67.6,50.4,29.85,NW,315,0.0,1.0,54,0.00,,---,0.00,VWS V14.00,2013-10-08 19:45:00,
2013-10-08 12:50:00,67.7,51.0,29.85,NW,314,0.0,0.0,55,0.00,,---,0.00,VWS V14.00,2013-10-08 19:50:00,
2013-10-08 12:55:00,67.9,50.7,29.85,NW,314,0.0,1.0,54,0.00,,---,0.00,VWS V14.00,2013-10-08 19:55:00,
2013-10-08 13:00:00,68.0,50.8,29.84,NW,315,0.0,0.0,54,0.00,,---,0.00,VWS V14.00,2013-10-08 20:00:00,
2013-10-08 13:05:00,68.2,50.4,29.84,NW,315,0.0,1.0,53,0.00,,---,0.00,VWS V14.00,2013-10-08 20:05:00,
2013-10-08 13:10:00,68.6,50.3,29.84,NW,314,0.0,1.0,52,0.00,,---,0.00,VWS V14.00,2013-10-08 20:10:00,
2013-10-08 13:15:00,68.9,50.6,29.84,NW,315,0.0,2.0,52,0.00,,---,0.00,VWS V14.00,2013-10-08 20:15:00,
2013-10-08 13:20:00,69.2,50.8,29.83,NW,315,0.0,1.0,52,0.00,,---,0.00,VWS V14.00,2013-10-08 20:20:00,
2013-10-08 13:25:00,69.6,50.7,29.83,NW,314,0.0,1.0,51,0.00,,---,0.00,VWS V14.00,2013-10-08 20:25:00,
2013-10-08 13:30:00,70.0,50.5,29.83,NW,314,1.0,1.0,50,0.00,,---,0.00,VWS V14.00,2013-10-08 20:30:00,
2013-10-08 13:35:00,70.2,51.2,29.82,NW,315,0.0,1.0,51,0.00,,---,0.00,VWS V14.00,2013-10-08 20:35:00,
2013-10-08 13:40:00,70.4,51.4,29.82,NW,315,0.0,1.0,51,0.00,,---,0.00,VWS V14.00,2013-10-08 20:40:00,
2013-10-08 13:45:00,70.5,51.5,29.82,NW,315,0.0,1.0,51,0.00,,---,0.00,VWS V14.00,2013-10-08 20:45:00,
2013-10-08 13:50:00,70.6,51.1,29.81,NNE,21,1.0,2.0,50,0.00,,---,0.00,VWS V14.00,2013-10-08 20:50:00,
2013-10-08 13:55:00,70.6,52.1,29.81,NNE,21,0.0,1.0,52,0.00,,---,0.00,VWS V14.00,2013-10-08 20:55:00,
2013-10-08 14:00:00,70.5,52.0,29.81,NNE,21,0.0,2.0,52,0.00,,---,0.00,VWS V14.00,2013-10-08 21:00:00,
2013-10-08 14:05:00,70.4,52.5,29.81,NNE,21,0.0,1.0,53,0.00,,---,0.00,VWS V14.00,2013-10-08 21:05:00,
2013-10-08 14:10:00,70.1,52.2,29.81,NNE,21,3.0,3.0,53,0.00,,---,0.00,VWS V14.00,2013-10-08 21:10:00,
2013-10-08 14:15:00,69.7,51.3,29.81,NNE,32,0.0,3.0,52,0.00,,---,0.00,VWS V14.00,2013-10-08 21:15:00,
2013-10-08 14:20:00,69.5,51.6,29.80,NNE,32,0.0,2.0,53,0.00,,---,0.00,VWS V14.00,2013-10-08 21:20:00,
2013-10-08 14:25:00,69.5,51.6,29.80,NNE,32,0.0,2.0,53,0.00,,---,0.00,VWS V14.00,2013-10-08 21:25:00,
2013-10-08 14:30:00,69.6,51.7,29.80,NNE,32,0.0,2.0,53,0.00,,---,0.00,VWS V14.00,2013-10-08 21:30:00,
2013-10-08 14:35:00,69.7,51.8,29.80,NNE,32,0.0,2.0,53,0.00,,---,0.00,VWS V14.00,2013-10-08 21:35:00,
2013-10-08 14:40:00,69.7,52.3,29.80,NNE,32,2.0,2.0,54,0.00,,---,0.00,VWS V14.00,2013-10-08 21:40:00,
2013-10-08 14:45:00,69.6,51.7,29.80,NNE,32,1.0,2.0,53,0.00,,---,0.00,VWS V14.00,2013-10-08 21:45:00,
2013-10-08 14:50:00,69.4,52.0,29.80,NNE,32,0.0,1.0,54,0.00,,---,0.00,VWS V14.00,2013-10-08 21:50:00,
2013-10-08 14:55:00,69.3,52.0,29.80,NNE,32,1.0,2.0,54,0.00,,---,0.00,VWS V14.00,2013-10-08 21:55:00,
2013-10-08 15:00:00,69.1,51.3,29.79,NNE,32,0.0,3.0,53,0.00,,---,0.00,VWS V14.00,2013-10-08 22:00:00,
2013-10-08 15:05:00,68.9,51.1,29.79,NNE,32,1.0,2.0,53,0.00,,---,0.00,VWS V14.00,2013-10-08 22:05:00,
2013-10-08 15:10:00,68.8,51.5,29.79,NNE,32,0.0,3.0,54,0.00,,---,0.00,VWS V14.00,2013-10-08 22:10:00,
2013-10-08 15:15:00,68.6,51.3,29.79,NNE,32,0.0,2.0,54,0.00,,---,0.00,VWS V14.00,2013-10-08 22:15:00,
2013-10-08 15:20:00,68.4,51.6,29.79,NNE,32,0.0,2.0,55,0.00,,---,0.00,VWS V14.00,2013-10-08 22:20:00,
2013-10-08 15:25:00,68.3,51.5,29.79,NNE,32,0.0,2.0,55,0.00,,---,0.00,VWS V14.00,2013-10-08 22:25:00,
2013-10-08 15:30:00,68.2,51.4,29.79,NNE,32,0.0,2.0,55,0.00,,---,0.00,VWS V14.00,2013-10-08 22:30:00,
2013-10-08 15:35:00,68.1,51.8,29.79,NNE,32,0.0,1.0,56,0.00,,---,0.00,VWS V14.00,2013-10-08 22:35:00,
2013-10-08 15:40:00,68.0,51.2,29.79,NNE,32,1.0,1.0,55,0.00,,---,0.00,VWS V14.00,2013-10-08 22:40:00,
2013-10-08 15:45:00,68.0,51.2,29.79,NNE,32,0.0,1.0,55,0.00,,---,0.00,VWS V14.00,2013-10-08 22:45:00,
2013-10-08 15:50:00,67.9,51.6,29.79,NNE,32,1.0,1.0,56,0.00,,---,0.00,VWS V14.00,2013-10-08 22:50:00,
2013-10-08 15:55:00,67.9,52.1,29.79,NE,54,0.0,2.0,57,0.00,,---,0.00,VWS V14.00,2013-10-08 22:55:00,
2013-10-08 16:00:00,67.7,51.9,29.79,NE,53,0.0,0.0,57,0.00,,---,0.00,VWS V14.00,2013-10-08 23:00:00,
2013-10-08 16:05:00,67.5,51.8,29.79,NE,54,0.0,0.0,57,0.00,,---,0.00,VWS V14.00,2013-10-08 23:05:00,
2013-10-08 16:10:00,67.3,52.0,29.79,NE,54,0.0,0.0,58,0.00,,---,0.00,VWS V14.00,2013-10-08 23:10:00,
2013-10-08 16:16:00,67.0,51.8,29.79,NE,54,0.0,1.0,58,0.00,,---,0.00,VWS V14.00,2013-10-08 23:16:00,
2013-10-08 16:21:00,66.8,52.0,29.79,NE,54,1.0,1.0,59,0.00,,---,0.00,VWS V14.00,2013-10-08 23:21:00,
2013-10-08 16:26:00,66.5,51.8,29.79,NE,54,0.0,3.0,59,0.00,,---,0.00,VWS V14.00,2013-10-08 23:26:00,
2013-10-08 16:31:00,66.3,52.0,29.79,NE,54,0.0,0.0,60,0.00,,---,0.00,VWS V14.00,2013-10-08 23:31:00,
2013-10-08 16:36:00,66.1,51.8,29.79,NE,54,0.0,1.0,60,0.00,,---,0.00,VWS V14.00,2013-10-08 23:36:00,
2013-10-08 16:41:00,65.9,52.1,29.79,NE,54,0.0,0.0,61,0.00,,---,0.00,VWS V14.00,2013-10-08 23:41:00,
2013-10-08 16:46:00,65.7,51.9,29.79,NE,54,0.0,0.0,61,0.00,,---,0.00,VWS V14.00,2013-10-08 23:46:00,
2013-10-08 16:51:00,65.4,51.6,29.78,NE,53,0.0,0.0,61,0.00,,---,0.00,VWS V14.00,2013-10-08 23:51:00,
2013-10-08 16:56:00,65.2,51.9,29.79,NE,54,0.0,0.0,62,0.00,,---,0.00,VWS V14.00,2013-10-08 23:56:00,
2013-10-08 17:01:00,65.0,51.7,29.79,NE,54,0.0,1.0,62,0.00,,---,0.00,VWS V14.00,2013-10-09 00:01:00,
2013-10-08 17:06:00,64.6,51.7,29.78,NE,54,0.0,0.0,63,0.00,,---,0.00,VWS V14.00,2013-10-09 00:06:00,
2013-10-08 17:11:00,64.1,51.7,29.78,NE,53,0.0,0.0,64,0.00,,---,0.00,VWS V14.00,2013-10-09 00:11:00,
2013-10-08 17:16:00,63.8,51.4,29.78,NE,54,0.0,0.0,64,0.00,,---,0.00,VWS V14.00,2013-10-09 00:16:00,
2013-10-08 17:21:00,63.5,51.5,29.78,NE,54,0.0,0.0,65,0.00,,---,0.00,VWS V14.00,2013-10-09 00:21:00,
2013-10-08 17:26:00,63.2,51.2,29.78,NE,54,0.0,0.0,65,0.00,,---,0.00,VWS V14.00,2013-10-09 00:26:00,
2013-10-08 17:31:00,63.0,51.1,29.78,NE,53,0.0,1.0,65,0.00,,---,0.00,VWS V14.00,2013-10-09 00:31:00,
2013-10-08 17:36:00,62.7,50.8,29.78,NE,53,0.0,0.0,65,0.00,,---,0.00,VWS V14.00,2013-10-09 00:36:00,
2013-10-08 17:41:00,62.5,51.0,29.78,NE,53,0.0,0.0,66,0.00,,---,0.00,VWS V14.00,2013-10-09 00:41:00,
2013-10-08 17:46:00,62.2,51.1,29.78,NE,53,0.0,0.0,67,0.00,,---,0.00,VWS V14.00,2013-10-09 00:46:00,
2013-10-08 17:51:00,62.0,50.9,29.78,NE,54,0.0,0.0,67,0.00,,---,0.00,VWS V14.00,2013-10-09 00:51:00,
2013-10-08 17:56:00,61.7,50.6,29.78,NE,53,0.0,0.0,67,0.00,,---,0.00,VWS V14.00,2013-10-09 00:56:00,
2013-10-08 18:01:00,61.5,50.8,29.78,NE,54,0.0,0.0,68,0.00,,---,0.00,VWS V14.00,2013-10-09 01:01:00,
2013-10-08 18:06:00,61.3,50.7,29.78,NE,53,0.0,0.0,68,0.00,,---,0.00,VWS V14.00,2013-10-09 01:06:00,
2013-10-08 18:11:00,60.9,50.3,29.78,NE,54,0.0,0.0,68,0.00,,---,0.00,VWS V14.00,2013-10-09 01:11:00,
2013-10-08 18:16:00,60.6,50.4,29.78,NE,54,0.0,0.0,69,0.00,,---,0.00,VWS V14.00,2013-10-09 01:16:00,
2013-10-08 18:21:00,60.2,50.4,29.78,NE,54,0.0,0.0,70,0.00,,---,0.00,VWS V14.00,2013-10-09 01:21:00,
2013-10-08 18:26:00,59.9,50.1,29.78,NE,53,0.0,0.0,70,0.00,,---,0.00,VWS V14.00,2013-10-09 01:26:00,
2013-10-08 18:32:00,59.5,50.1,29.77,NE,53,0.0,0.0,71,0.00,,---,0.00,VWS V14.00,2013-10-09 01:32:00,
2013-10-08 18:37:00,59.1,50.1,29.77,NE,54,0.0,0.0,72,0.00,,---,0.00,VWS V14.00,2013-10-09 01:37:00,
2013-10-08 18:42:00,59.0,50.0,29.77,NE,54,0.0,0.0,72,0.00,,---,0.00,VWS V14.00,2013-10-09 01:42:00,
2013-10-08 18:47:00,59.0,50.4,29.77,NE,54,0.0,0.0,73,0.00,,---,0.00,VWS V14.00,2013-10-09 01:47:00,
2013-10-08 18:52:00,58.7,50.1,29.77,NE,54,0.0,0.0,73,0.00,,---,0.00,VWS V14.00,2013-10-09 01:52:00,
2013-10-08 18:57:00,58.3,49.7,29.77,NE,54,0.0,0.0,73,0.00,,---,0.00,VWS V14.00,2013-10-09 01:57:00,
2013-10-08 19:02:00,58.0,49.8,29.77,NE,53,0.0,0.0,74,0.00,,---,0.00,VWS V14.00,2013-10-09 02:02:00,
2013-10-08 19:07:00,57.5,49.7,29.77,NE,54,0.0,0.0,75,0.00,,---,0.00,VWS V14.00,2013-10-09 02:07:00,
2013-10-08 19:12:00,57.1,49.6,29.77,NE,53,0.0,0.0,76,0.00,,---,0.00,VWS V14.00,2013-10-09 02:12:00,
2013-10-08 19:17:00,56.8,49.7,29.77,NE,54,0.0,0.0,77,0.00,,---,0.00,VWS V14.00,2013-10-09 02:17:00,
2013-10-08 19:22:00,56.6,49.5,29.78,NE,53,0.0,0.0,77,0.00,,---,0.00,VWS V14.00,2013-10-09 02:22:00,
2013-10-08 19:27:00,56.4,49.6,29.78,NE,53,0.0,0.0,78,0.00,,---,0.00,VWS V14.00,2013-10-09 02:27:00,
2013-10-08 19:32:00,56.3,49.5,29.77,NE,54,0.0,0.0,78,0.00,,---,0.00,VWS V14.00,2013-10-09 02:32:00,
2013-10-08 19:37:00,56.2,49.4,29.78,NE,53,0.0,0.0,78,0.00,,---,0.00,VWS V14.00,2013-10-09 02:37:00,
2013-10-08 19:42:00,56.1,49.3,29.77,NE,53,0.0,0.0,78,0.00,,---,0.00,VWS V14.00,2013-10-09 02:42:00,
2013-10-08 19:47:00,55.9,49.2,29.77,NE,54,0.0,0.0,78,0.00,,---,0.00,VWS V14.00,2013-10-09 02:47:00,
2013-10-08 19:52:00,55.8,49.4,29.77,NE,53,0.0,0.0,79,0.00,,---,0.00,VWS V14.00,2013-10-09 02:52:00,
2013-10-08 19:57:00,55.6,49.2,29.77,NE,54,0.0,0.0,79,0.00,,---,0.00,VWS V14.00,2013-10-09 02:57:00,
2013-10-08 20:02:00,55.4,49.0,29.77,NE,54,0.0,0.0,79,0.00,,---,0.00,VWS V14.00,2013-10-09 03:02:00,
2013-10-08 20:07:00,55.2,49.2,29.77,NE,54,0.0,0.0,80,0.00,,---,0.00,VWS V14.00,2013-10-09 03:07:00,
2013-10-08 20:13:00,54.9,48.9,29.77,NE,54,0.0,0.0,80,0.00,,---,0.00,VWS V14.00,2013-10-09 03:13:00,
2013-10-08 20:18:00,54.6,48.9,29.77,NE,54,0.0,0.0,81,0.00,,---,0.00,VWS V14.00,2013-10-09 03:18:00,
2013-10-08 20:23:00,54.3,48.6,29.77,NE,54,0.0,0.0,81,0.00,,---,0.00,VWS V14.00,2013-10-09 03:23:00,
2013-10-08 20:28:00,54.1,48.7,29.77,NE,53,0.0,0.0,82,0.00,,---,0.00,VWS V14.00,2013-10-09 03:28:00,
2013-10-08 20:33:00,53.9,48.5,29.77,NE,53,0.0,0.0,82,0.00,,---,0.00,VWS V14.00,2013-10-09 03:33:00,
2013-10-08 20:38:00,53.7,48.3,29.77,NE,54,0.0,0.0,82,0.00,,---,0.00,VWS V14.00,2013-10-09 03:38:00,
2013-10-08 20:43:00,53.5,48.5,29.77,NE,54,0.0,0.0,83,0.00,,---,0.00,VWS V14.00,2013-10-09 03:43:00,
2013-10-08 20:48:00,53.3,48.3,29.77,NE,54,0.0,0.0,83,0.00,,---,0.00,VWS V14.00,2013-10-09 03:48:00,
2013-10-08 20:53:00,53.0,48.0,29.77,NE,53,0.0,0.0,83,0.00,,---,0.00,VWS V14.00,2013-10-09 03:53:00,
2013-10-08 20:58:00,52.6,47.6,29.77,NE,54,0.0,0.0,83,0.00,,---,0.00,VWS V14.00,2013-10-09 03:58:00,
2013-10-08 21:01:00,52.4,47.4,29.77,NE,54,0.0,0.0,83,0.00,,---,0.00,VWS V14.00,2013-10-09 04:01:00,
2013-10-08 21:02:00,52.4,47.7,29.77,NE,53,0.0,0.0,84,0.00,,---,0.00,VWS V14.00,2013-10-09 04:02:00,
2013-10-08 21:03:00,52.3,47.6,29.77,NE,54,0.0,0.0,84,0.00,,---,0.00,VWS V14.00,2013-10-09 04:03:00,
2013-10-08 21:04:00,52.2,47.5,29.77,NE,54,0.0,0.0,84,0.00,,---,0.00,VWS V14.00,2013-10-09 04:04:00,
2013-10-08 21:09:00,51.9,47.2,29.77,NE,54,0.0,0.0,84,0.00,,---,0.00,VWS V14.00,2013-10-09 04:09:00,
2013-10-08 21:14:00,51.6,46.9,29.77,NE,54,0.0,0.0,84,0.00,,---,0.00,VWS V14.00,2013-10-09 04:14:00,
2013-10-08 21:19:00,51.3,46.6,29.77,NE,54,0.0,0.0,84,0.00,,---,0.00,VWS V14.00,2013-10-09 04:19:00,
2013-10-08 21:24:00,51.2,46.8,29.77,NE,53,0.0,0.0,85,0.00,,---,0.00,VWS V14.00,2013-10-09 04:24:00,
2013-10-08 21:29:00,50.9,46.6,29.77,NE,54,0.0,0.0,85,0.00,,---,0.00,VWS V14.00,2013-10-09 04:29:00,
2013-10-08 21:34:00,50.7,46.4,29.77,NE,53,0.0,0.0,85,0.00,,---,0.00,VWS V14.00,2013-10-09 04:34:00,
2013-10-08 21:39:00,50.5,46.2,29.77,NE,53,0.0,0.0,85,0.00,,---,0.00,VWS V14.00,2013-10-09 04:39:00,
2013-10-08 21:44:00,50.2,46.2,29.77,NE,54,0.0,0.0,86,0.00,,---,0.00,VWS V14.00,2013-10-09 04:44:00,
2013-10-08 21:49:00,50.1,46.1,29.77,NE,53,0.0,0.0,86,0.00,,---,0.00,VWS V14.00,2013-10-09 04:49:00,
2013-10-08 21:54:00,49.9,45.9,29.77,NE,54,0.0,0.0,86,0.00,,---,0.00,VWS V14.00,2013-10-09 04:54:00,
2013-10-08 22:00:00,49.8,45.8,29.77,NE,54,0.0,0.0,86,0.00,,---,0.00,VWS V14.00,2013-10-09 05:00:00,
2013-10-08 22:05:00,49.7,46.0,29.77,NE,54,0.0,0.0,87,0.00,,---,0.00,VWS V14.00,2013-10-09 05:05:00,
2013-10-08 22:10:00,49.6,45.6,29.77,NE,54,0.0,0.0,86,0.00,,---,0.00,VWS V14.00,2013-10-09 05:10:00,
2013-10-08 22:15:00,49.5,45.5,29.77,NE,54,0.0,0.0,86,0.00,,---,0.00,VWS V14.00,2013-10-09 05:15:00,
2013-10-08 22:20:00,49.4,45.4,29.77,NE,54,0.0,0.0,86,0.00,,---,0.00,VWS V14.00,2013-10-09 05:20:00,
2013-10-08 22:25:00,49.4,45.4,29.77,NE,54,0.0,0.0,86,0.00,,---,0.00,VWS V14.00,2013-10-09 05:25:00,
2013-10-08 22:30:00,49.2,45.5,29.77,NE,53,0.0,0.0,87,0.00,,---,0.00,VWS V14.00,2013-10-09 05:30:00,
2013-10-08 22:35:00,49.2,45.5,29.77,NE,54,0.0,0.0,87,0.00,,---,0.00,VWS V14.00,2013-10-09 05:35:00,
2013-10-08 22:40:00,49.1,45.4,29.77,NE,54,0.0,0.0,87,0.00,,---,0.00,VWS V14.00,2013-10-09 05:40:00,
2013-10-08 22:45:00,48.9,44.9,29.77,NE,54,0.0,0.0,86,0.00,,---,0.00,VWS V14.00,2013-10-09 05:45:00,
2013-10-08 22:50:00,48.7,44.7,29.77,NE,53,0.0,0.0,86,0.00,,---,0.00,VWS V14.00,2013-10-09 05:50:00,
2013-10-08 22:55:00,48.5,44.5,29.76,NE,54,0.0,0.0,86,0.00,,---,0.00,VWS V14.00,2013-10-09 05:55:00,
2013-10-08 23:00:00,48.3,44.3,29.77,NE,54,0.0,1.0,86,0.00,,---,0.00,VWS V14.00,2013-10-09 06:00:00,
2013-10-08 23:05:00,48.1,44.1,29.77,NE,53,0.0,0.0,86,0.00,,---,0.00,VWS V14.00,2013-10-09 06:05:00,
2013-10-08 23:10:00,48.0,44.3,29.76,NE,54,0.0,0.0,87,0.00,,---,0.00,VWS V14.00,2013-10-09 06:10:00,
2013-10-08 23:15:00,47.8,44.1,29.76,NE,54,0.0,0.0,87,0.00,,---,0.00,VWS V14.00,2013-10-09 06:15:00,
2013-10-08 23:20:00,47.7,44.0,29.75,NE,54,0.0,0.0,87,0.00,,---,0.00,VWS V14.00,2013-10-09 06:20:00,
2013-10-08 23:25:00,47.6,43.9,29.76,NE,53,0.0,0.0,87,0.00,,---,0.00,VWS V14.00,2013-10-09 06:25:00,
2013-10-08 23:30:00,47.5,43.8,29.76,NE,54,0.0,0.0,87,0.00,,---,0.00,VWS V14.00,2013-10-09 06:30:00,
2013-10-08 23:35:00,47.3,43.6,29.75,NE,54,0.0,0.0,87,0.00,,---,0.00,VWS V14.00,2013-10-09 06:35:00,
2013-10-08 23:40:00,47.1,43.4,29.75,NE,53,0.0,0.0,87,0.00,,---,0.00,VWS V14.00,2013-10-09 06:40:00,
2013-10-08 23:45:00,46.9,43.2,29.75,NE,54,0.0,0.0,87,0.00,,---,0.00,VWS V14.00,2013-10-09 06:45:00,
2013-10-08 23:50:00,46.7,43.3,29.75,NE,54,0.0,0.0,88,0.00,,---,0.00,VWS V14.00,2013-10-09 06:50:00,
2013-10-08 23:55:00,46.5,42.8,29.74,NE,54,0.0,0.0,87,0.00,,---,0.00,VWS V14.00,2013-10-09 06:55:00,